#timestamp,LO_Frequency,Hit,StdDev 
1549130415.9,286046997.3,N
1549130435.7,286046997.8,P
1549130455.5,286046997.6,P
1549130475.4,286046993.5,Y
1549130495.2,286046995.3,P
1549130515.1,286046995.5,P
1549130516.0,286046995.5,P
1549130535.8,286046993.3,Y
1549130555.6,286046996.6,P
1549130575.5,286046996.8,P
1549130595.3,286046997.1,P
1549130615.2,286046995.4,Y
1549130635.9,286047001.1,P
1549130655.7,286046998.4,N
1549130675.6,286046996.5,N
1549130695.4,286046999.0,N
1549130715.2,286046998.5,N
1549130735.1,286046998.3,N
1549130736.0,286046998.3,N
1549130755.8,286046998.5,N
1549130775.7,286046996.9,N
1549130795.5,286046999.6,N
1549130815.3,286046995.4,Y
1549130835.2,286046995.3,P
1549130855.0,286046997.3,N
1549130855.9,286046997.3,N
1549130875.8,286046997.1,N
1549130895.6,286046999.5,N
1549130915.4,286046999.1,N
1549130935.3,286046997.4,N
1549130955.1,286046997.9,N
1549130975.9,286046996.9,N
1549130995.7,286046997.9,N
1549131015.5,286046995.0,Y
1549131035.4,286047000.6,P
1549131055.2,286047000.4,N
1549131075.0,286046998.1,N
1549131075.9,286046998.1,N
1549131095.8,286046996.8,N
1549131115.6,286046997.6,N
1549131135.5,286046997.5,N
1549131155.3,286046997.2,N
1549131175.1,286046997.2,N
1549131195.9,286046998.8,N
1549131215.7,286046997.1,N
1549131235.5,286046996.6,N
1549131255.4,286046997.2,N
1549131275.2,286046996.6,N
1549131295.1,286046997.0,N
1549131296.0,286046997.0,N
1549131315.8,286046997.2,N
1549131335.6,286046997.3,N
1549131355.5,286046997.7,N
1549131375.3,286046997.7,N
1549131395.1,286046994.9,Y
1549131415.9,286046998.4,P
1549131435.7,286046998.6,P
1549131455.6,286047000.9,N
1549131475.4,286046998.1,N
1549131495.2,286046998.6,N
1549131515.1,286046999.3,N
1549131516.0,286046999.3,N
1549131535.8,286046998.7,N
1549131555.6,286047000.8,N
1549131575.5,286047001.1,N
1549131595.3,286046998.2,N
1549131615.2,286046998.8,N
1549131635.9,286046999.4,N
1549131655.7,286046996.6,Y
1549131675.6,286046999.1,P
1549131695.4,286046996.6,P
1549131715.2,286046999.3,N
1549131735.1,286046998.2,N
1549131736.0,286046998.2,N
1549131755.8,286047000.9,N
1549131775.7,286046999.4,N
1549131795.5,286046998.7,N
1549131815.3,286047000.8,N
1549131835.2,286047011.9,Y
1549131855.0,286046998.1,P
1549131855.9,286046998.1,P
1549131875.7,286046999.0,N
1549131895.6,286046999.5,N
1549131915.4,286046998.7,N
1549131935.3,286047000.9,N
1549131955.1,286047000.2,N
1549131956.0,286047000.2,N
1549131975.8,286047001.0,N
1549131995.7,286047000.4,N
1549132015.5,286046998.3,N
1549132035.3,286046999.0,N
1549132055.2,286046999.6,N
1549132075.0,286046999.4,N
1549132075.9,286046999.4,N
1549132095.8,286046997.8,N
1549132115.6,286046995.0,Y
1549132135.4,286046997.4,P
1549132155.3,286046997.1,P
1549132175.1,286046999.1,N
1549132195.9,286046996.9,Y
1549132215.7,286046998.5,P
1549132235.5,286046998.7,P
1549132255.4,286047000.8,P
1549132275.2,286047001.0,N
1549132295.0,286046999.0,N
1549132295.9,286046999.0,N
1549132315.8,286046998.2,N
1549132335.6,286046999.0,N
1549132355.5,286046999.3,N
1549132375.3,286046999.5,N
1549132395.1,286046998.9,N
1549132415.9,286046999.4,N
1549132435.7,286046999.5,N
1549132455.5,286046996.8,Y
1549132475.4,286046998.8,P
1549132495.2,286046999.5,N
1549132515.1,286046999.0,P
1549132516.0,286046999.0,Y
1549132535.8,286047001.0,P
1549132555.6,286047002.5,N
1549132575.5,286047001.0,N
1549132595.3,286047002.8,N
1549132615.1,286047000.2,N
1549132635.9,286047000.0,N
1549132655.7,286046999.8,N
1549132675.6,286046999.8,N
1549132695.4,286047001.2,N
1549132715.2,286046998.1,N
1549132735.1,286047001.7,N
1549132736.0,286047001.7,N
1549132755.8,286047000.1,N
1549132775.6,286047002.6,N
1549132795.5,286047002.6,N
1549132815.3,286046999.7,N
1549132835.2,286047002.2,N
1549132855.9,286047002.7,N
1549132875.7,286047001.7,N
1549132895.6,286047003.6,N
1549132915.4,286047003.6,N
1549132935.2,286047004.2,N
1549132955.1,286047001.4,N
1549132956.0,286047001.4,N
1549132975.8,286047003.1,N
1549132995.7,286047001.7,N
1549133015.5,286046999.9,N
1549133035.3,286047000.2,N
1549133055.2,286047000.2,N
1549133075.9,286046999.9,N
1549133095.7,286047000.5,N
1549133115.6,286046998.5,N
1549133135.4,286046999.7,N
1549133155.3,286046998.4,N
1549133175.1,286046998.6,N
1549133176.0,286046998.6,N
1549133195.8,286046996.5,N
1549133215.7,286046999.6,N
1549133235.5,286046996.6,N
1549133255.3,286046998.6,N
1549133275.2,286046998.6,N
1549133295.0,286046998.4,N
1549133295.9,286046998.4,N
1549133315.8,286046998.5,N
1549133335.6,286046998.8,N
1549133355.4,286047000.3,N
1549133375.3,286047000.2,N
1549133395.1,286047000.6,N
1549133415.8,286047000.4,N
1549133435.7,286047000.3,N
1549133455.5,286047001.1,N
1549133475.4,286047002.8,N
1549133495.2,286047002.9,N
1549133515.0,286047003.1,N
1549133515.9,286047003.1,N
1549133535.8,286047002.2,N
1549133555.6,286047001.5,N
1549133575.4,286047001.3,N
1549133595.3,286047005.1,N
1549133615.1,286047007.4,Y
1549133635.9,286047005.0,P
1549133655.7,286047005.1,N
1549133675.5,286047011.9,P
1549133695.4,286047007.5,N
1549133715.2,286047007.4,N
1549133735.0,286047005.1,N
1549133735.9,286047005.1,N
1549133755.8,286047006.9,N
1549133775.6,286047006.6,N
1549133795.4,286047007.4,N
1549133815.3,286047007.5,N
1549133835.1,286047005.9,N
1549133855.9,286047005.4,N
1549133875.7,286047006.7,N
1549133895.5,286047008.3,Y
1549133915.4,286047004.3,P
1549133935.2,286047002.3,N
1549133955.0,286047000.0,N
1549133955.9,286047000.0,N
1549133975.8,286047001.7,N
1549133995.6,286047005.0,N
